STARLINK-31636, 59747

Orbit data source: Space-Track

STARLINK-31636, 59747 is a payload satellite owned by SpaceX/Seattle (US) in LEO that was launched on Mon, 13 May 2024 UTC via an FALCON 9 launch vehicle from the Air Force Eastern Test Range (AFETR). Payload-class satellites include a variety of spacecraft equipped with specific instruments for various scientific and technological missions. These include communications satellites like Starlink; space stations such as the ISS; scientific satellites like the Hubble; Earth observation satellites from companies like Planet Labs, Umbra, and HawkEye 360; GPS; miniature CubeSats for education and research; and military/defense satellites.

Loading next visibility...
Identifier
59747, 2024-090T
Orbit
LEO
Country
Flag of USUS
Related business
Manufacturer
SpaceX/Seattle
Mission
Operational Commercial Communications
Bus & Motor
STARLINK V2M, Unknown motor
Mass
730 kg wet, ~700 kg dry
Launch date (UTC)
2024-05-13 (2 years ago)
Launch vehicle
FALCON 9
Launch site
Air Force Eastern Test Range (AFETR)
Object type
Payload
Rocket body
Debris
Shape & HBR
Box + 2 Pan, 17.7 m
Radar Cross Section
33.884 m², Large (>1 m²)

Expand to show TLE details & history
Last TLE update: 2 days ago

TLE from 2 days ago
0 STARLINK-31636
1 59747U 24090T   26171.42163311  .00004900  00000-0  18760-3 0  9993
2 59747  42.9999 323.1458 0000731 161.1912 198.8966 15.27551949119156
Epoch: 2026-06-20T10:07Z
TLE epoch observation values (Epoch: 2026-06-20T10:07:09.100Z)
Latitude
-0.00008°
Longitude
-97.27869°
Altitude
483.383 km
Speed
7.625 km/s
True Right ascension
21h 32m 34s
True Declination
0° 00' 00"
Sunlit
Object was in full shadow at epoch
Visualization orbit readout
Latitude
Unknown
Longitude
Unknown
Altitude
Unknown
Speed
Unknown
Apparent Right ascension
Unknown
Apparent Declination
Unknown
Sunlit
N/A
Visualization observer readout
Local Sidereal Time
21:31:06
Azimuth
Unknown
Elevation
Unknown
Doppler factor
Unknown
Orbital elements
Apogee altitude
485.58 km
Perigee altitude
484.577 km
Semi-major axis
6,863.215 km
Eccentricity
0.00007
Inclination
42.9999°
RAAN
323.1458°
Arg. of periapsis
161.1912°
True anomaly
198.89389°
Mean anomaly
198.8966°
Eccentric anomaly
198.89524°
Mean motion
3.81726 °/min
Orbital period
94.31 mins
BSTAR
0.0001876
Loading maneuver chart data...
Computing Atmospheric mass density...
Loading historical data...
Loading historical data...
Loading historical data...
Loading historical data...
Loading historical data...
Loading historical data...
Loading historical data...

Documentation

Showing up to 5 results
|